| time (UTC) | temp F | wind direction | speed knots | gust knots | rain 1hr in | rain 24hr in | rain mn in | humidity % | barometer mb |
| 20260510032018 | 48 | 269 | 4.3 | 2.6 | 0.00 | 0.24 | 0.24 | 97 | 1006.3 |
| 20260510031018 | 47 | 269 | 4.3 | 2.6 | 0.00 | 0.24 | 0.24 | 96 | 1006.3 |
| 20260510030017 | 47 | 269 | 4.3 | 2.6 | 0.00 | 0.24 | 0.24 | 96 | 1006.3 |
| 20260510025017 | 47 | 269 | 4.3 | 2.6 | 0.00 | 0.24 | 0.24 | 96 | 1006.3 |
| 20260510024018 | 48 | 269 | 4.3 | 2.6 | 0.00 | 0.24 | 0.24 | 96 | 1006.4 |
| 20260510023017 | 48 | 269 | 4.3 | 2.6 | 0.00 | 0.24 | 0.24 | 96 | 1006.5 |
| 20260510022018 | 48 | 269 | 4.3 | 2.6 | 0.00 | 0.24 | 0.24 | 96 | 1006.7 |
| 20260510021018 | 48 | 269 | 4.3 | 2.6 | 0.00 | 0.24 | 0.24 | 96 | 1006.7 |
| 20260510020018 | 48 | 269 | 4.3 | 2.6 | 0.00 | 0.24 | 0.24 | 95 | 1006.4 |
| 20260510014018 | 50 | 269 | 4.3 | 2.6 | 0.00 | 0.24 | 0.24 | 96 | 1006.4 |
| 20260510013018 | 50 | 269 | 4.3 | 2.6 | 0.00 | 0.24 | 0.24 | 96 | 1006.5 |
| 20260510012017 | 50 | 269 | 4.3 | 2.6 | 0.00 | 0.24 | 0.24 | 96 | 1006.5 |
| 20260510011018 | 50 | 269 | 4.3 | 2.6 | 0.00 | 0.24 | 0.24 | 96 | 1006.3 |
| 20260510010017 | 50 | 269 | 4.3 | 2.6 | 0.00 | 0.24 | 0.24 | 96 | 1006.3 |
| 20260510005018 | 50 | 269 | 4.3 | 2.6 | 0.00 | 0.24 | 0.24 | 95 | 1006.3 |
| 20260510004018 | 51 | 269 | 4.3 | 2.6 | 0.00 | 0.24 | 0.24 | 95 | 1006.3 |
| 20260510003018 | 51 | 269 | 4.3 | 2.6 | 0.00 | 0.24 | 0.24 | 95 | 1006.1 |
| 20260510002017 | 51 | 269 | 4.3 | 2.6 | 0.00 | 0.24 | 0.24 | 95 | 1006.1 |
| 20260510001018 | 51 | 269 | 4.3 | 2.6 | 0.00 | 0.24 | 0.24 | 95 | 1006.1 |
| 20260510000018 | 52 | 269 | 4.3 | 2.6 | 0.00 | 0.24 | 0.24 | 94 | 1006.2 |
| 20260509235019 | 52 | 269 | 4.3 | 2.6 | 0.00 | 0.24 | 0.24 | 94 | 1005.9 |
| 20260509234017 | 53 | 269 | 4.3 | 2.6 | 0.00 | 0.24 | 0.24 | 94 | 1005.9 |
| 20260509233017 | 53 | 269 | 4.3 | 2.6 | 0.00 | 0.24 | 0.24 | 94 | 1005.8 |
| 20260509232018 | 53 | 269 | 4.3 | 2.6 | 0.00 | 0.24 | 0.24 | 94 | 1005.7 |
| 20260509231018 | 53 | 269 | 4.3 | 2.6 | 0.00 | 0.24 | 0.24 | 95 | 1005.6 |
| 20260509230018 | 53 | 269 | 4.3 | 2.6 | 0.00 | 0.24 | 0.24 | 95 | 1005.6 |
| 20260509225017 | 53 | 269 | 4.3 | 2.6 | 0.00 | 0.24 | 0.24 | 96 | 1005.6 |
| 20260509224018 | 53 | 269 | 4.3 | 2.6 | 0.00 | 0.24 | 0.24 | 96 | 1005.6 |
| 20260509223018 | 52 | 269 | 4.3 | 2.6 | 0.00 | 0.24 | 0.24 | 96 | 1005.5 |
| 20260509222018 | 52 | 269 | 4.3 | 2.6 | 0.00 | 0.24 | 0.24 | 96 | 1005.4 |
| 20260509221017 | 52 | 269 | 4.3 | 2.6 | 0.00 | 0.24 | 0.24 | 96 | 1005.5 |
| 20260509220018 | 52 | 269 | 4.3 | 2.6 | 0.00 | 0.24 | 0.24 | 97 | 1005.5 |
| 20260509215017 | 52 | 269 | 4.3 | 2.6 | 0.00 | 0.24 | 0.24 | 97 | 1005.8 |
| 20260509214018 | 52 | 269 | 4.3 | 2.6 | 0.00 | 0.24 | 0.24 | 97 | 1005.8 |
| 20260509213018 | 51 | 269 | 4.3 | 2.6 | 0.00 | 0.24 | 0.24 | 97 | 1005.9 |
| 20260509212020 | 51 | 269 | 4.3 | 2.6 | 0.00 | 0.24 | 0.24 | 96 | 1006.1 |
| 20260509211017 | 51 | 269 | 4.3 | 2.6 | 0.00 | 0.24 | 0.24 | 96 | 1006.1 |
| 20260509210020 | 52 | 269 | 4.3 | 2.6 | 0.00 | 0.24 | 0.24 | 96 | 1006.1 |
| 20260509205018 | 52 | 269 | 4.3 | 2.6 | 0.00 | 0.24 | 0.24 | 97 | 1006.2 |
| 20260509204018 | 52 | 269 | 4.3 | 2.6 | 0.00 | 0.24 | 0.24 | 97 | 1006.2 |
| 20260509203019 | 51 | 269 | 4.3 | 2.6 | 0.00 | 0.24 | 0.24 | 97 | 1006.2 |
| 20260509202018 | 51 | 269 | 4.3 | 2.6 | 0.00 | 0.24 | 0.24 | 96 | 1006.3 |
| 20260509201018 | 51 | 269 | 4.3 | 2.6 | 0.00 | 0.24 | 0.24 | 96 | 1006.4 |
| 20260509200019 | 51 | 269 | 4.3 | 2.6 | 0.00 | 0.24 | 0.24 | 97 | 1006.5 |
| 20260509195018 | 51 | 269 | 4.3 | 2.6 | 0.00 | 0.24 | 0.24 | 97 | 1006.8 |
| 20260509194018 | 51 | 269 | 4.3 | 2.6 | 0.00 | 0.24 | 0.24 | 97 | 1006.8 |
| 20260509192018 | 51 | 269 | 4.3 | 2.6 | 0.00 | 0.24 | 0.24 | 97 | 1007.0 |
| 20260509191017 | 50 | 269 | 4.3 | 2.6 | 0.00 | 0.24 | 0.24 | 96 | 1007.0 |
| 20260509190018 | 50 | 269 | 4.3 | 2.6 | 0.00 | 0.24 | 0.24 | 97 | 1007.0 |
| 20260509185017 | 50 | 269 | 4.3 | 2.6 | 0.00 | 0.24 | 0.24 | 96 | 1007.0 |
| 20260509184018 | 50 | 269 | 4.3 | 2.6 | 0.00 | 0.24 | 0.24 | 97 | 1007.1 |
| 20260509182018 | 49 | 269 | 4.3 | 2.6 | 0.00 | 0.24 | 0.24 | 96 | 1007.1 |
| 20260509181018 | 49 | 269 | 4.3 | 2.6 | 0.01 | 0.24 | 0.24 | 96 | 1007.1 |
| 20260509180018 | 49 | 269 | 4.3 | 2.6 | 0.01 | 0.24 | 0.24 | 96 | 1007.2 |
| 20260509175017 | 49 | 269 | 4.3 | 2.6 | 0.01 | 0.24 | 0.24 | 96 | 1007.2 |
| 20260509174018 | 48 | 269 | 4.3 | 2.6 | 0.01 | 0.24 | 0.24 | 96 | 1007.2 |
| 20260509173019 | 48 | 269 | 4.3 | 2.6 | 0.02 | 0.24 | 0.24 | 96 | 1007.3 |
| 20260509172019 | 48 | 269 | 4.3 | 2.6 | 0.02 | 0.24 | 0.24 | 96 | 1007.4 |
| 20260509171018 | 48 | 269 | 4.3 | 2.6 | 0.02 | 0.23 | 0.23 | 96 | 1007.6 |
| 20260509170018 | 47 | 269 | 4.3 | 2.6 | 0.02 | 0.23 | 0.23 | 96 | 1007.6 |
| 20260509165019 | 47 | 269 | 4.3 | 2.6 | 0.03 | 0.23 | 0.23 | 96 | 1007.6 |
| 20260509164019 | 46 | 269 | 4.3 | 2.6 | 0.03 | 0.23 | 0.23 | 96 | 1007.7 |
| 20260509163020 | 46 | 269 | 4.3 | 2.6 | 0.02 | 0.22 | 0.22 | 96 | 1008.2 |
| 20260509162018 | 46 | 269 | 4.3 | 2.6 | 0.03 | 0.22 | 0.22 | 96 | 1008.2 |
| 20260509161020 | 46 | 269 | 4.3 | 2.6 | 0.02 | 0.21 | 0.21 | 95 | 1008.2 |
| 20260509160021 | 45 | 269 | 4.3 | 2.6 | 0.03 | 0.21 | 0.21 | 96 | 1008.4 |
| 20260509154018 | 45 | 269 | 4.3 | 2.6 | 0.03 | 0.20 | 0.20 | 95 | 1008.7 |
| 20260509153018 | 44 | 269 | 4.3 | 2.6 | 0.04 | 0.20 | 0.20 | 95 | 1009.0 |
| 20260509152018 | 44 | 269 | 4.3 | 2.6 | 0.04 | 0.22 | 0.19 | 95 | 1009.0 |
| 20260509150018 | 43 | 269 | 4.3 | 2.6 | 0.05 | 0.21 | 0.18 | 95 | 1009.2 |
| 20260509145018 | 43 | 269 | 4.3 | 2.6 | 0.07 | 0.21 | 0.18 | 95 | 1009.2 |
| 20260509144019 | 42 | 269 | 4.3 | 2.6 | 0.07 | 0.20 | 0.17 | 95 | 1009.2 |
| 20260509143018 | 42 | 269 | 4.3 | 2.6 | 0.07 | 0.19 | 0.16 | 94 | 1009.2 |
| 20260509142019 | 42 | 269 | 4.3 | 2.6 | 0.07 | 0.18 | 0.15 | 94 | 1009.2 |
| 20260509141018 | 42 | 269 | 4.3 | 2.6 | 0.07 | 0.17 | 0.14 | 94 | 1009.3 |
| 20260509140018 | 41 | 269 | 4.3 | 2.6 | 0.07 | 0.16 | 0.13 | 94 | 1009.3 |
| 20260509135018 | 41 | 269 | 4.3 | 2.6 | 0.06 | 0.14 | 0.11 | 94 | 1009.2 |
| 20260509134018 | 41 | 269 | 4.3 | 2.6 | 0.06 | 0.13 | 0.10 | 94 | 1009.2 |
| 20260509132018 | 41 | 269 | 4.3 | 2.6 | 0.05 | 0.11 | 0.08 | 93 | 1009.3 |
| 20260509131018 | 41 | 269 | 4.3 | 2.6 | 0.04 | 0.10 | 0.07 | 93 | 1009.4 |
| 20260509130018 | 41 | 269 | 4.3 | 2.6 | 0.04 | 0.09 | 0.06 | 93 | 1009.5 |
| 20260509125018 | 41 | 269 | 4.3 | 2.6 | 0.03 | 0.08 | 0.05 | 93 | 1009.5 |
| 20260509124018 | 41 | 269 | 4.3 | 2.6 | 0.03 | 0.07 | 0.04 | 92 | 1009.5 |
| 20260509123018 | 41 | 269 | 4.3 | 2.6 | 0.04 | 0.07 | 0.04 | 92 | 1009.5 |
| 20260509122018 | 41 | 269 | 4.3 | 2.6 | 0.03 | 0.06 | 0.03 | 92 | 1009.5 |
| 20260509121018 | 40 | 269 | 4.3 | 2.6 | 0.03 | 0.06 | 0.03 | 92 | 1009.6 |
| 20260509120018 | 40 | 269 | 4.3 | 2.6 | 0.02 | 0.05 | 0.02 | 91 | 1009.6 |
| 20260509115018 | 40 | 269 | 4.3 | 2.6 | 0.02 | 0.05 | 0.02 | 91 | 1009.7 |
| 20260509114019 | 40 | 269 | 4.3 | 2.6 | 0.01 | 0.04 | 0.01 | 90 | 1009.6 |
| 20260509113019 | 40 | 269 | 4.3 | 2.6 | 0.00 | 0.03 | 0.00 | 90 | 1009.4 |
| 20260509111019 | 40 | 269 | 4.3 | 2.6 | 0.00 | 0.03 | 0.00 | 90 | 1009.4 |
| 20260509110018 | 40 | 269 | 4.3 | 2.6 | 0.00 | 0.03 | 0.00 | 90 | 1009.2 |
| 20260509105018 | 39 | 269 | 4.3 | 2.6 | 0.00 | 0.03 | 0.00 | 90 | 1009.1 |
| 20260509104020 | 39 | 269 | 4.3 | 2.6 | 0.00 | 0.03 | 0.00 | 90 | 1009.1 |
| 20260509102019 | 39 | 269 | 4.3 | 2.6 | 0.00 | 0.03 | 0.00 | 89 | 1009.0 |
| 20260509101018 | 39 | 269 | 4.3 | 2.6 | 0.00 | 0.03 | 0.00 | 88 | 1009.1 |
| 20260509100021 | 39 | 269 | 4.3 | 2.6 | 0.00 | 0.03 | 0.00 | 88 | 1009.1 |
| 20260509095019 | 39 | 269 | 4.3 | 2.6 | 0.00 | 0.03 | 0.00 | 87 | 1009.5 |
| 20260509094019 | 39 | 269 | 4.3 | 2.6 | 0.00 | 0.03 | 0.00 | 87 | 1009.5 |
| 20260509093018 | 39 | 269 | 4.3 | 2.6 | 0.00 | 0.03 | 0.00 | 87 | 1009.5 |
| 20260509092019 | 39 | 269 | 4.3 | 2.6 | 0.00 | 0.03 | 0.00 | 87 | 1009.5 |
| 20260509091018 | 39 | 269 | 4.3 | 2.6 | 0.00 | 0.04 | 0.00 | 88 | 1009.5 |
| 20260509090020 | 39 | 269 | 4.3 | 2.6 | 0.00 | 0.04 | 0.00 | 87 | 1009.6 |
| 20260509083019 | 38 | 269 | 4.3 | 2.6 | 0.00 | 0.04 | 0.00 | 89 | 1009.8 |
| 20260509082019 | 37 | 269 | 4.3 | 2.6 | 0.00 | 0.04 | 0.00 | 89 | 1009.8 |
| 20260509081020 | 37 | 269 | 4.3 | 2.6 | 0.00 | 0.04 | 0.00 | 89 | 1009.7 |
| 20260509080019 | 36 | 269 | 4.3 | 2.6 | 0.00 | 0.04 | 0.00 | 88 | 1009.6 |
| 20260509075019 | 36 | 269 | 4.3 | 2.6 | 0.00 | 0.04 | 0.00 | 88 | 1009.6 |
| 20260509074019 | 36 | 269 | 4.3 | 2.6 | 0.00 | 0.04 | 0.00 | 89 | 1009.6 |
| 20260509073019 | 35 | 269 | 4.3 | 2.6 | 0.00 | 0.04 | 0.00 | 89 | 1009.5 |
| 20260509072019 | 34 | 269 | 4.3 | 2.6 | 0.00 | 0.04 | 0.00 | 87 | 1009.6 |
| 20260509071019 | 35 | 269 | 4.3 | 2.6 | 0.00 | 0.04 | 0.00 | 87 | 1009.6 |
| 20260509070020 | 35 | 269 | 4.3 | 2.6 | 0.00 | 0.04 | 0.00 | 87 | 1009.7 |
| 20260509065019 | 35 | 269 | 4.3 | 2.6 | 0.00 | 0.04 | 0.00 | 86 | 1009.6 |
| 20260509064019 | 36 | 269 | 4.3 | 2.6 | 0.00 | 0.04 | 0.00 | 84 | 1009.7 |
| 20260509062018 | 36 | 269 | 4.3 | 2.6 | 0.00 | 0.04 | 0.00 | 85 | 1009.9 |
| 20260509061019 | 37 | 269 | 4.3 | 2.6 | 0.00 | 0.04 | 0.00 | 83 | 1009.9 |
| 20260509060023 | 37 | 269 | 4.3 | 2.6 | 0.00 | 0.04 | 0.00 | 83 | 1010.1 |
| 20260509055019 | 37 | 269 | 4.3 | 2.6 | 0.00 | 0.04 | 0.00 | 80 | 1010.2 |
| 20260509053020 | 38 | 269 | 4.3 | 2.6 | 0.00 | 0.04 | 0.00 | 81 | 1010.4 |
| 20260509052020 | 40 | 269 | 4.3 | 2.6 | 0.00 | 0.04 | 0.00 | 78 | 1010.3 |
| 20260509051020 | 41 | 269 | 4.3 | 2.6 | 0.00 | 0.04 | 0.00 | 77 | 1010.5 |
| 20260509050019 | 41 | 269 | 4.3 | 2.6 | 0.00 | 0.04 | 0.00 | 77 | 1010.5 |
| 20260509045019 | 41 | 269 | 4.3 | 2.6 | 0.00 | 0.04 | 0.00 | 76 | 1010.5 |
| 20260509044020 | 42 | 269 | 4.3 | 2.6 | 0.00 | 0.04 | 0.00 | 76 | 1010.4 |
| 20260509043018 | 41 | 269 | 4.3 | 2.6 | 0.00 | 0.04 | 0.00 | 78 | 1010.4 |
| 20260509042018 | 39 | 269 | 4.3 | 2.6 | 0.00 | 0.04 | 0.00 | 81 | 1010.3 |
| 20260509041019 | 38 | 269 | 4.3 | 2.6 | 0.00 | 0.04 | 0.00 | 82 | 1010.2 |
| 20260509040019 | 39 | 269 | 4.3 | 2.6 | 0.00 | 0.04 | 0.00 | 80 | 1010.2 |
| 20260509035019 | 39 | 269 | 4.3 | 2.6 | 0.00 | 0.04 | 0.04 | 79 | 1010.2 |
| 20260509034019 | 40 | 269 | 4.3 | 2.6 | 0.00 | 0.04 | 0.04 | 78 | 1010.2 |
| 20260509033019 | 39 | 269 | 4.3 | 2.6 | 0.00 | 0.04 | 0.04 | 78 | 1010.1 |